#timestamp,LO_Frequency,Hit,StdDev 
1456196415.2,286046996.2,N
1456196435.1,286046997.6,N
1456196436.0,286046997.6,N
1456196455.8,286046995.1,Y
1456196475.6,286047004.0,P
1456196495.5,286047002.0,N
1456196515.3,286046997.4,N
1456196535.1,286046996.1,N
1456196555.9,286046993.4,N
1456196575.7,286046995.6,N
1456196595.5,286046995.9,N
1456196615.4,286046992.7,N
1456196635.2,286046993.8,N
1456196655.0,286046993.7,N
1456196655.9,286046993.7,N
1456196675.8,286046991.8,N
1456196695.6,286046991.0,N
1456196715.4,286046991.3,N
1456196735.2,286046989.2,N
1456196755.1,286046990.9,N
1456196756.0,286046990.9,N
1456196775.8,286046988.5,N
1456196795.6,286046991.4,N
1456196815.5,286046989.0,N
1456196835.3,286046989.1,N
1456196855.1,286046991.9,N
1456196875.9,286046990.3,N
1456196895.7,286046992.3,N
1456196915.5,286046991.4,N
1456196935.4,286046990.4,N
1456196955.2,286046988.5,Y
1456196975.0,286046995.2,P
1456196975.9,286046995.2,P
1456196995.8,286046992.0,P
1456197015.6,286046993.9,Y
1456197035.4,286047004.3,P
1456197055.3,286047003.1,N
1456197075.1,286047007.4,N
1456197076.0,286047007.4,N
1456197095.8,286047004.0,N
1456197115.7,286047004.3,N
1456197135.5,286047000.4,N
1456197155.3,286047002.5,N
1456197175.2,286047002.3,N
1456197195.9,286046999.9,N
1456197215.7,286046998.1,N
1456197235.5,286046997.0,N
1456197255.4,286046999.1,N
1456197275.2,286046997.6,N
1456197295.0,286046996.6,N
1456197295.9,286046996.6,N
1456197315.8,286046999.2,N
1456197335.6,286046996.6,N
1456197355.4,286047001.0,N
1456197375.3,286046998.3,N
1456197395.1,286046999.9,N
1456197396.0,286046999.9,N
1456197415.8,286046997.6,N
1456197435.7,286046997.3,N
1456197455.5,286046998.0,N
1456197475.3,286046995.6,N
1456197495.2,286046997.5,N
1456197515.9,286046995.7,N
1456197535.7,286046997.4,N
1456197555.5,286047000.4,N
1456197575.4,286047000.3,N
1456197595.2,286046998.1,N
1456197615.0,286047000.8,N
1456197615.9,286047000.8,N
1456197635.8,286046999.2,N
1456197655.6,286046995.6,N
1456197675.4,286046997.3,N
1456197695.3,286046997.8,N
1456197715.1,286046998.5,N
1456197716.0,286046998.5,N
1456197735.8,286046999.6,N
1456197755.7,286046996.5,N
1456197775.5,286047000.3,N
1456197795.3,286047000.5,N
1456197815.2,286047000.1,N
1456197835.9,286047000.0,N
1456197855.7,286047000.3,N
1456197875.6,286047000.4,N
1456197895.4,286046999.9,N
1456197915.2,286046999.7,N
1456197935.0,286046999.8,N
1456197935.9,286046999.8,N
1456197955.8,286046999.8,N
1456197975.6,286046999.8,N
1456197995.4,286047002.7,N
1456198015.3,286047001.1,N
1456198035.1,286046998.7,N
1456198055.8,286046997.4,N
1456198075.7,286046996.9,N
1456198095.5,286046996.9,N
1456198115.3,286046997.7,N
1456198135.2,286046995.2,Y
1456198155.9,286046995.9,P
1456198175.7,286046996.6,N
1456198195.6,286046999.2,N
1456198215.4,286047000.9,N
1456198235.2,286047002.7,N
1456198255.1,286047002.3,N
1456198256.0,286047002.3,N
1456198275.8,286047003.7,N
1456198295.6,286047001.4,N
1456198315.4,286047002.5,N
1456198335.3,286046997.2,N
1456198355.1,286046998.4,N
1456198375.8,286046996.5,N
1456198395.7,286046999.4,N
1456198415.5,286046997.6,N
1456198435.3,286046995.7,N
1456198455.2,286046998.5,N
1456198475.9,286047000.6,N
1456198495.7,286047000.7,N
1456198515.6,286047001.0,N
1456198535.4,286047002.8,N
1456198555.2,286047004.3,N
1456198575.1,286047003.9,N
1456198576.0,286047003.9,N
1456198595.8,286047005.6,N
1456198615.6,286047003.4,N
1456198635.4,286047003.5,N
1456198655.3,286047003.4,N
1456198675.1,286047004.0,N
1456198695.8,286047002.6,N
1456198715.7,286047004.0,N
1456198735.5,286047001.8,N
1456198755.3,286047002.0,N
1456198775.2,286047001.9,N
1456198795.9,286047003.1,N
1456198815.7,286047000.5,N
1456198835.6,286047000.1,N
1456198855.4,286046999.8,N
1456198875.2,286046999.8,N
1456198895.1,286047000.3,N
1456198896.0,286047000.3,N
1456198915.8,286047002.0,N
1456198935.6,286047001.6,N
1456198955.4,286047003.6,N
1456198975.3,286047003.5,N
1456198995.1,286047005.9,N
1456199015.8,286047003.7,N
1456199035.7,286047006.0,Y
1456199055.5,286047002.2,P
1456199075.3,286047002.5,P
1456199095.2,286047002.6,P
1456199115.0,286047000.3,N
1456199115.9,286047000.3,N
1456199135.7,286046999.1,N
1456199155.6,286046997.4,N
1456199175.4,286046992.3,Y
1456199195.2,286046990.8,P
1456199215.1,286046988.6,N
1456199216.0,286046988.6,N
1456199235.8,286046987.2,N
1456199255.6,286046986.2,N
1456199275.5,286046988.8,N
1456199295.3,286046989.8,N
1456199315.1,286046989.2,N
1456199335.9,286046990.0,N
1456199355.7,286046988.0,Y
1456199375.5,286047000.9,P
1456199395.4,286046999.8,N
1456199415.2,286047006.7,N
1456199435.0,286047004.0,N
1456199435.9,286047004.0,N
1456199455.8,286047001.5,N
1456199475.6,286046999.1,N
1456199495.4,286046996.6,N
1456199515.2,286046996.6,N
1456199535.1,286046998.7,N
1456199536.0,286046998.7,N
1456199555.8,286046998.8,N
1456199575.6,286046997.8,N
1456199595.5,286046998.9,N
1456199615.3,286047002.8,N
1456199635.1,286047000.6,N
1456199655.9,286047000.3,N
1456199675.7,286047001.0,N
1456199695.5,286046998.5,N
1456199715.4,286047002.3,N
1456199735.2,286047001.8,N
1456199755.0,286047005.7,N
1456199755.9,286047005.7,N
1456199775.8,286047005.1,N
1456199795.6,286047007.3,N
1456199815.4,286047010.0,N
1456199835.2,286047011.1,N
1456199855.1,286047009.4,N
1456199856.0,286047009.4,N
1456199875.8,286047009.4,N
1456199895.7,286047013.6,Y
1456199915.5,286047009.7,P
1456199935.3,286047015.0,P
1456199955.1,286047012.6,N
1456199975.9,286047013.8,N
1456199995.7,286047012.9,N
